Regional Weather Roundup
Issued by NWS

Home | Current Version | Previous Version | Text Only | Print | Product List | Glossary On
Versions: 1 2 3 4 5 6 7 8 9 10 11 12 13 14 15 16 17 18 19 20 21 22 23 24 25 26 27 28 29 30 31 32 33 34 35 36 37 38 39 40 41 42 43 44 45 46 47 48 49 50
000
ASUS44 KOUN 171910
RWROK

WEATHER ROUNDUP FOR OKLAHOMA
NATIONAL WEATHER SERVICE NORMAN OK
200 PM CDT THU AUG 17 2017

NOTE: "FAIR" INDICATES FEW OR NO CLOUDS BELOW 12,000 FEET WITH NO
      SIGNIFICANT WEATHER AND/OR OBSTRUCTIONS TO VISIBILITY.

OKZ001>007-009>012-014-015-017-172000-
NORTHWEST OKLAHOMA AND THE PANHANDLE

CITY           SKY/WX    TMP DP  RH WIND       PRES   REMARKS
GAGE           SUNNY     88  61  40 VRB6      30.08F
ENID/WOODRING  SUNNY     88  57  35 NW5       30.04F
$$

OKZ016-021>023-033>039-044-045-172000-
SOUTHWEST OKLAHOMA

CITY           SKY/WX    TMP DP  RH WIND       PRES   REMARKS
LAWTON/REGL    SUNNY    N/A N/A N/A NE3       30.03F
LAWTON/FT SILL SUNNY     89  76  65 E6        30.02F HX  99
FREDERICK      SUNNY     90  72  55 NE7       30.01S HX  97
CLINTON        SUNNY     87  64  46 E8        30.08F
HOBART         SUNNY     88  69  53 E9        30.06F HX  92
ALTUS AFB      SUNNY     91  64  41 SE7       30.04R HX  92
$$

OKZ018>020-024>031-172000-
CENTRAL OKLAHOMA

CITY           SKY/WX    TMP DP  RH WIND       PRES   REMARKS
OKLAHOMA CITY  MOSUNNY   87  68  52 N5        30.04F HX  90
OKC/WILEY POST SUNNY     86  69  56 CALM      30.04F HX  90
OKC/TINKER AFB SUNNY     87  68  54 SE3       30.04F HX  90
STILLWATER     SUNNY     87  64  46 MISG      30.03F
GUTHRIE        SUNNY     87  67  51 W5        30.04S HX  90
$$

OKZ008-013-054>072-172000-
NORTHEAST OKLAHOMA

CITY           SKY/WX    TMP DP  RH WIND       PRES   REMARKS
TULSA          MOSUNNY   88  73  61 W9        29.99F HX  95
TULSA/JONES    MOSUNNY   88  69  53 VRB7      30.00F HX  92
PONCA CITY     SUNNY     85  62  46 CALM      30.03F
BARTLESVILLE   SUNNY     87  66  49 VRB5      30.02S
MUSKOGEE       MOSUNNY   83  72  69 S5        30.04S
$$

OKZ032-040>043-046>053-073>077-172000-
SOUTH CENTRAL/SOUTHEAST OKLAHOMA

CITY           SKY/WX    TMP DP  RH WIND       PRES   REMARKS
ARDMORE/DWNTWN SUNNY     86  72  62 S6        30.02F HX  92
MCALESTER      CLOUDY    85  75  72 S8        30.04S HX  93
$$





USA.gov is the U.S. government's official web portal to all federal, state and local government web resources and services.